www.pogodaiklimat.ru

Погода и климат >> Архив погоды >> Австралия >> Западная Австралия >> Форрест


ПОГОДА в Форресте

  • Прогноз погоды в Форресте
  • Монитор погоды в Форресте

АРХИВ ПОГОДЫ в Форресте

Время (UTC), дата Ветер
(напр.,м/с)
 
Видим.   Явления Облачность Т
(С)
Тd
(С)
f
(%)
Тe
(С)
Тes
(С)
Комфортность P
(гПа)
Po
(гПа)
Тmin
(С)
Tmax
(С)
R
(мм)
R24
(мм)
S
(см)
04 12.02 ЮЗ 7 н/о 1/1 1500 м
[]
+26.4 +8.4 32 +26 +32 жарко 1012.6 994.3
06 12.02 ЮЗ 8 н/о н/о +27.0 +6.9 28 +27 +27 жарко 1012.0 993.7
07 12.02 Ю 8 н/о 1/0 2000 м
[]
+26.8 +7.8 30 +27 +28 жарко 1011.8 993.5
09 12.02 Ю 9 н/о н/о +23.4 +9.8 42 +25 +25 комфорт 1013.3 995.0
10 12.02 Ю 8 н/о н/о +20.8 +9.7 49 +22 +22 комфорт 1014.3 996.0
12 12.02 Ю 8 н/о н/о +18.0 +10.4 61 +17 +17 1016.6 998.2
13 12.02 Ю 5 н/о н/о +17.4 +10.1 62 +17 +17 1017.3 998.9 +28.2
15 12.02 Ю 5 н/о н/о +16.3 +9.5 64 +15 +15 1017.3 998.9
16 12.02 Ю 4 н/о н/о +14.9 +9.1 68 +14 +14 1017.1 998.7
18 12.02 Ю 3 н/о н/о +13.0 +8.1 72 +12 +12 1016.9 998.5
19 12.02 Ю 4 н/о н/о +12.3 +7.8 74 +11 +11 1017.1 998.7
21 12.02 Ю 4 н/о н/о +11.4 +7.5 77 +9 +9 1018.2 999.8
22 12.02 Ю 3 н/о 9/9 1000 м
[]
+13.4 +8.5 72 +12 +12 1018.9 1000.5
00 13.02 ЮВ 6 н/о н/о +20.0 +7.7 45 +21 +21 комфорт 1019.7 1001.3
01 13.02 ЮВ 4 н/о н/о +20.8 +6.4 39 +22 +22 комфорт 1019.6 1001.2 +11.3
03 13.02 В 5 н/о н/о +24.0 +5.4 30 +24 +24 комфорт 1018.6 1000.2
04 13.02 В 4 н/о н/о +24.3 +5.6 30 +24 +24 комфорт 1018.3 999.9
06 13.02 В 4 н/о н/о +25.7 +5.3 27 +25 +25 комфорт 1016.5 998.1
07 13.02 ЮВ 4 н/о н/о +27.6 +6.4 26 +27 +27 жарко 1016.1 997.7
09 13.02 0 н/о н/о +26.3 +6.9 29 1015.9 997.5
10 13.02 0 н/о н/о +24.9 +7.5 33 1016.5 998.1
12 13.02 0 н/о н/о +18.9 +9.7 55 1018.2 999.8
13 13.02 0 н/о н/о +17.6 +9.5 59 1018.7 1000.3 +28.0
15 13.02 0 н/о н/о +16.2 +9.6 65 1018.6 1000.2
16 13.02 0 н/о н/о +15.4 +9.3 67 1018.2 999.8
18 13.02 0 н/о н/о +13.1 +8.0 71 1017.8 999.4
19 13.02 0 н/о н/о +12.7 +8.0 73 1017.8 999.4
21 13.02 0 н/о н/о +11.3 +7.4 77 1018.1 999.7
22 13.02 0 н/о н/о +13.7 +8.7 72 1018.7 1000.3
00 14.02 0 н/о н/о +21.0 +8.0 43 1018.9 1000.5
01 14.02 0 н/о н/о +23.8 +7.0 34 1018.8 1000.4 +11.1
03 14.02 0 н/о н/о +27.6 +5.8 25 1017.1 998.7
04 14.02 0 н/о н/о +29.5 +4.9 21 1016.1 997.7
06 14.02 0 н/о н/о +31.1 +2.3 16 1015.1 996.8
07 14.02 В 3 н/о н/о +31.5 +1.8 15 +29 +29 жарко 1014.7 996.4
09 14.02 В 3 н/о н/о +31.6 +0.9 14 +29 +29 жарко 1014.8 996.5
10 14.02 В 4 н/о 8/0
[]
+30.3 +0.8 15 +28 +28 жарко 1014.9 996.6
12 14.02 ЮВ 8 н/о н/о +27.1 +9.5 33 +27 +27 жарко 1016.0 997.6
13 14.02 В 8 н/о 10/0
[]
+25.4 +10.1 38 +26 +26 жарко 1016.7 998.3
15 14.02 В 5 н/о н/о +21.6 +8.8 44 +23 +23 комфорт 1016.5 998.1
16 14.02 В 5 н/о н/о +20.4 +8.7 47 +22 +22 комфорт 1016.5 998.1
18 14.02 В 3 н/о н/о +17.5 +8.4 55 +18 +18 1017.1 998.7
19 14.02 штиль 0 н/о 3/0
[]
+16.4 +7.6 56 +16 +16 1017.4 999.0
21 14.02 В 4 н/о н/о +16.5 +8.7 60 +16 +16 1017.1 998.7
22 14.02 В 5 н/о 10/0
[]
+18.8 +8.7 52 +19 +19 1017.8 999.4
00 15.02 С 4 н/о н/о +23.2 +6.5 34 +24 +24 комфорт 1019.5 1001.1
01 15.02 СВ 6 н/о 10/0
[]
+25.6 +5.8 28 +25 +28 комфорт 1018.6 1000.2
03 15.02 С 6 н/о н/о +31.7 +1.0 14 +29 +29 жарко 1017.9 999.5
04 15.02 С 4 н/о 10/0
[]
+32.6 +0.6 13 +29 +36 жарко 1017.3 998.9
06 15.02 С 5 н/о н/о +35.3 +0.4 11 +32 +32 жарко 1015.6 997.2
07 15.02 СВ 4 н/о н/о +35.0 +0.2 11 +31 +31 жарко 1015.8 997.4
09 15.02 СВ 5 н/о н/о +34.8 0.0 11 +31 +31 жарко 1015.2 996.9
10 15.02 СВ 4 н/о н/о +33.3 +0.1 12 +30 +30 жарко 1015.7 997.3
12 15.02 СВ 4 н/о н/о +25.4 -3.1 15 +23 +23 комфорт 1017.1 998.7
13 15.02 СВ 4 н/о н/о +24.6 -2.0 17 +23 +23 комфорт 1016.8 998.4 +37.4
15 15.02 В 5 н/о н/о +23.6 +3.0 26 +23 +23 комфорт 1016.1 997.7
16 15.02 В 5 н/о н/о +21.9 +3.1 29 +22 +22 комфорт 1015.5 997.1
18 15.02 СВ 3 н/о н/о +19.0 +2.4 33 +19 +19 1015.4 997.0
19 15.02 В 4 н/о н/о +18.0 +1.9 34 +18 +18 1014.9 996.6
21 15.02 СВ 3 н/о н/о +16.9 +2.1 37 +17 +17 1015.4 997.0
22 15.02 СВ 3 н/о 4/0
[]
+18.4 +2.3 34 +19 +19 1015.8 997.4
00 16.02 СВ 5 н/о н/о +27.0 +2.1 20 +25 +25 комфорт 1016.0 997.6
01 16.02 СВ 8 н/о н/о +31.4 -0.3 13 +28 +28 жарко 1015.2 996.9 +16.8
03 16.02 СВ 8 н/о н/о +36.2 -0.2 10 +32 +32 жарко 1013.9 995.6
04 16.02 С 7 н/о н/о +36.7 +0.1 10 +33 +33 жарко 1012.9 994.6
06 16.02 С 4 н/о н/о +38.6 +1.6 10 +35 +35 очень
жарко
1011.1 992.8
07 16.02 С 3 н/о 1/0
[]
+39.1 +1.9 10 +36 +42 очень
жарко
1010.3 992.0
09 16.02 СВ 5 н/о н/о +38.5 +1.5 10 +35 +35 очень
жарко
1009.5 991.3
10 16.02 СВ 5 н/о н/о +36.1 +1.0 11 +33 +33 жарко 1009.5 991.3
12 16.02 СВ 6 н/о н/о +30.8 +0.2 14 +28 +28 жарко 1009.8 991.5
13 16.02 СВ 5 н/о 1/0
[]
+29.4 +0.1 15 +27 +27 жарко 1009.4 991.2 +39.9
15 16.02 СВ 4 н/о н/о +26.4 -0.6 17 +24 +24 комфорт 1008.7 990.5
16 16.02 ЮЗ 8 н/о 10/0
[]
+23.0 +12.3 51 +26 +26 жарко 1009.4 991.2
18 16.02 ЮЗ 7 н/о н/о +21.1 +14.3 65 +24 +24 комфорт 1009.9 991.6
19 16.02 ЮЗ 7 н/о 10/0
[]
+20.7 +15.5 72 +23 +23 комфорт 1010.0 991.7
21 16.02 ЮЗ 8 н/о н/о +19.4 +17.5 89 +21 +21 комфорт 1010.8 992.5
22 16.02 Ю 9 н/о 3/3 200 м
[]
+19.9 +17.9 88 +22 +22 комфорт 1011.5 993.2
00 17.02 Ю 9 н/о н/о +23.0 +17.5 71 +28 +28 душно 1012.2 993.9
01 17.02 Ю 8 н/о н/о +25.3 +17.0 60 +29 +29 душно 1012.3 994.0 +19.5
03 17.02 Ю 8 н/о н/о +27.9 +14.9 45 +30 +30 жарко 1011.5 993.2
04 17.02 Ю 8 н/о н/о +28.6 +14.8 43 +31 +31 жарко 1011.1 992.8
06 17.02 Ю 10 н/о н/о +28.1 +14.3 43 +30 +30 жарко 1010.9 992.6
07 17.02 Ю 9 н/о н/о +27.1 +13.8 44 +29 +29 жарко 1011.1 992.8
09 17.02 Ю 9 н/о н/о +22.6 +13.9 58 +26 +26 жарко 1012.3 994.0
10 17.02 Ю 8 н/о 9/9 600 м
[]
+21.5 +13.7 61 +24 +24 комфорт 1013.1 994.8
12 17.02 Ю 8 н/о н/о +19.1 +13.1 68 +20 +20 1014.6 996.3
13 17.02 Ю 9 н/о 9/9 600 м
[]
+18.6 +12.4 67 +18 +18 1014.9 996.6 +31.0
15 17.02 Ю 7 н/о н/о +18.0 +11.8 67 +17 +17 1015.0 996.7
16 17.02 Ю 7 н/о 10/10 600 м
[]
+18.0 +12.0 68 +17 +17 1014.6 996.3
18 17.02 ЮВ 7 н/о н/о +17.3 +11.3 68 +16 +16 1014.3 996.0
19 17.02 Ю 6 н/о 10/10 600 м
[]
+17.7 +11.7 68 +17 +17 1014.3 996.0
21 17.02 Ю 7 н/о н/о +17.6 +10.9 65 +17 +17 1015.2 996.9
22 17.02 ЮВ 6 н/о 10/10 600 м
[]
+17.9 +11.0 64 +17 +17 1015.4 997.0
00 18.02 ЮВ 7 н/о н/о +19.3 +11.1 59 +20 +20 1016.4 998.0
01 18.02 ЮВ 6 н/о 9/9 600 м
[]
+20.9 +11.3 54 +23 +23 комфорт 1016.6 998.2 +17.2
03 18.02 ЮВ 5 н/о н/о +24.5 +10.4 41 +26 +26 жарко 1016.1 997.7
04 18.02 Ю 4 н/о н/о +25.3 +9.6 37 +26 +26 жарко 1015.5 997.1
06 18.02 Ю 7 н/о н/о +27.4 +9.3 32 +28 +28 жарко 1014.0 995.7
07 18.02 ЮВ 7 н/о н/о +27.0 +8.4 31 +27 +27 жарко 1013.7 995.4
09 18.02 ЮВ 8 н/о н/о +25.0 +10.1 39 +26 +26 жарко 1014.4 996.1
10 18.02 ЮВ 8 н/о н/о +22.2 +10.7 48 +24 +24 комфорт 1015.2 996.9
12 18.02 ЮВ 7 н/о н/о +18.9 +10.7 59 +19 +19 1017.2 998.8
13 18.02 ЮВ 6 н/о н/о +17.7 +10.8 64 +17 +17 1017.6 999.2 +28.1
16 18.02 ЮВ 4 н/о н/о +15.5 +10.5 72 +15 +15 1017.2 998.8
18 18.02 ЮВ 4 н/о н/о +13.8 +9.5 75 +12 +12 1016.7 998.3
19 18.02 ЮВ 4 н/о н/о +13.5 +9.2 75 +12 +12 1016.6 998.2
21 18.02 ЮВ 3 н/о н/о +12.3 +8.8 79 +11 +11 1016.8 998.4
22 18.02 ЮВ 3 н/о н/о +14.8 +10.0 73 +14 +14 1017.5 999.1
00 19.02 В 7 н/о н/о +20.2 +10.6 54 +21 +21 комфорт 1018.0 999.6
01 19.02 В 6 н/о н/о +22.4 +10.2 46 +24 +24 комфорт 1017.9 999.5
03 19.02 В 5 н/о н/о +25.1 +7.3 32 +25 +25 комфорт 1016.8 998.4
04 19.02 В 4 н/о н/о +27.2 +6.0 26 +26 +26 жарко 1016.1 997.7

 

Местоположение метеостанции Форрест (Западная Австралия, Австралия): широта -30.83 долгота 128.11 высота над уровнем моря 160 м.

В архиве по умолчанию представлена погода в Форресте за последнюю неделю. Архивные данные за месяц целиком и за предыдущие месяцы, начиная с января 2011 года, Вы можете получить, выбрав интересующий диапазон дат из раскрывающегося списка и нажав кнопку "Ввод!".


*Определитесь, кто Вы:
робот инопланетянин человек

Внимание! Время в таблицах - всемирное. Для получения местного времени необходимо прибавить поправку, которая равна 8 ч.

Смотрите также архив погоды в соседних городах и на ближайших метеорологических станциях:

Погода в Евкле (Западная Австралия, Австралия) (120 км)
Погода в Ред Рокс Пойнт (Западная Австралия, Австралия) (162 км)
Погода в Наллаборе (Южная Австралия, Австралия) (274 км)
Погода в Уорбертоне (Западная Австралия, Австралия) (544 км)
Погода в Сидуне (Южная Австралия, Австралия) (550 км)
Погода в Лавертоне (Западная Австралия, Австралия) (603 км)
Погода в Таркуле (Южная Австралия, Австралия) (618 км)
Погода в Норсмане (Западная Австралия, Австралия) (622 км)
Погода в Калгурли-Боулдере (Западная Австралия, Австралия) (636 км)
Погода в Эрнабелле (Южная Австралия, Австралия) (644 км)

Пояснения к столбцам:

Ветер - указаны скорость ветра в м/с - средняя за 10 мин, порывы в срок и между сроками (в фигурных скобках) и направление, откуда дует ветер: С - северный, СВ - северо-восточный, В - восточный, ЮВ - юго-восточный, Ю - южный, ЮЗ - юго-западный, З - западный, СЗ - северо-западный.
Видимость - горизонтальная дальность видимости в метрах или километрах. При видимости от 1 до 10 км при отсутствии осадков обычно наблюдается дымка, при ухудшении видимости до 1 км и менее - туман. В сухую погоду видимость может ухудшаться дымом, пылью или мглою.
Явления - указаны атмосферные явления, наблюдавшиеся в срок или в последний час перед сроком; фигурными скобками обозначены явления, наблюдавшиеся между сроками (за 1-3 часа до срока); квадратными скобками обозначены град или гололедные отложения с указанием их диаметра в мм.
Облачность - указаны через наклонную черту общая и нижняя облачность в баллах и высота нижней границы облаков в метрах; квадратными скобками обозначены формы облаков: Ci - перистые, Cs - перисто-слоистые, Cc - перисто-кучевые, Ac - высококучевые, As - высокослоистые, Sc - слоисто-кучевые, Ns - слоисто-дождевые, Cu - кучевые, Cb - кучево-дождевые. Подробнее классификацию облаков см. в Атласе облаков (PDF).
T - Температура воздуха - температура, измеренная на высоте 2 м над землей.
Td - Температура точки росы - температура, при понижении до которой содержащийся в воздухе водяной пар достигнет насыщения.
f - Относительная влажность воздуха - влажноcть воздуха, измеренная на высоте 2 м над землей.
Te - Эффективная температура - температура, которую ощущает одетый по сезону человек в тени. Характеристика душности погоды. При расчете учитывается влияние влажности воздуха и скорости ветра на теплоощущения человека.
Tes - Эффективная температура на солнце - температура, которую ощущает человек, с поправкой на солнечный нагрев. Характеристика знойности погоды. Зависит от высоты солнца над горизонтом, облачности и скорости ветра. Ночью, в пасмурную погоду, а также при ветре 12 м/с и более поправка равна нулю.
P - Атмосферное давление - приведенное к уровню моря атмосферное давление.
Po - Атмосферное давление - измеренное на уровне метеостанции атмосферное давление.
Tmin - Минимальная температура - минимум температуры воздуха на высоте 2 м над землей.
Tmax - Максимальная температура - максимум температуры воздуха на высоте 2 м над землей.
R - Количество осадков - Количество выпавших осадков за период времени, мм. При наведении курсора мыши на число - период времени, за который выпало указанное количество осадков.
R24 - Количество осадков - Количество выпавших осадков за 24 часа, мм.
S - Снежный покров - Высота снежного покрова, см. При наведении курсора мыши на число - состояние снежного покрова и степень покрытия местности в баллах.